Location: Unspecified
(0.0000°N, 0.0000°E)
Time: 18:47:59
(UTC+00:00)

Vanguard 2 Rocket - Pass Details

Date: 26 November 2019
Orbit: 554 x 3326 km, 32.9° (Epoch: 05 December)

Event Time Altitude Azimuth Distance (km) Brightness Sun altitude
Rises 16:06:38 0° 225° (SW) 7,196 12.6 23.4°
Reaches altitude 10° 16:12:30 10° 217° (SW) 5,946 12.2 22.0°
Maximum altitude 16:27:54 38° 156° (SSE) 3,128 9.8 18.5°
Drops below altitude 10° 16:37:37 10° 91° (E) 3,825 9.6 16.2°
Sets 16:40:27 0° 83° (E) 4,477 9.8 15.6°
